Clarksburg, WV

1:20 PM EDT on June 22, 2017 (GMT -0400)
Benedum

Weather History for KCKB - May, 2014

Change the Weather History Date:

Thursday, May 15, 2014

  Actual Average Record
Temperature  
Mean Temperature 62 °F -  
Max Temperature 73 °F 74 °F 88 °F (1957)
Min Temperature 51 °F 46 °F 35 °F (1936)
Degree Days  
Heating Degree Days 3    
Growing Degree Days 12 (Base 50)    
Moisture  
Dew Point 55 °F    
Average Humidity 84    
Maximum Humidity 93    
Minimum Humidity 55    
Precipitation  
Precipitation 1.42 in - - ()
Sea Level Pressure  
Sea Level Pressure 29.94 in    
Wind  
Wind Speed 8 mph (SW)    
Max Wind Speed 16 mph    
Max Gust Speed 23 mph    
Visibility 6 miles    
Events Rain    
Averages and records for this station are not official NWS values.
T = Trace of Precipitation, MM = Missing Value Source: NWS Daily Summary

Daily Weather History Graph

Daily Weather History Graph

Search for Another Location

Airport or City:

Trip Planner

Search our weather history database for the weather conditions in past years. The results will help you decide how hot, cold, wet, or windy it might be!

Date:

Astronomy

May. 15, 2014 Rise Set
Actual Time 6:07 AM EDT 8:27 PM EDT
Civil Twilight 5:37 AM EDT 8:57 PM EDT
Nautical Twilight 4:59 AM EDT 9:35 PM EDT
Astronomical Twilight 4:18 AM EDT 10:16 PM EDT
Moon 9:34 PM EDT (5/15) 6:52 AM EDT (5/15)
Length of Visible Light 15h 20m
Length of Day
14h 20m
Full, 99% of the Moon is Illuminated
May 15
Full
May 21
Last Quarter
May 28
New
Jun 5
First Quarter
Jun 13
Full

Hourly Weather History & Observations

Time (EDT) Temp. Dew Point Humidity Pressure Visibility Wind Dir Wind Speed Gust Speed Precip Events Conditions
12:53 AM 73.9 °F 57.0 °F 55% 29.94 in 10.0 mi SSE 12.7 mph 18.4 mph N/A   Clear
1:53 AM 72.0 °F 57.9 °F 61% 29.92 in 10.0 mi SE 5.8 mph - N/A   Clear
2:53 AM 72.0 °F 57.0 °F 59% 29.91 in 10.0 mi SSE 10.4 mph - N/A   Clear
3:53 AM 72.0 °F 57.0 °F 59% 29.89 in 10.0 mi ESE 9.2 mph - N/A   Clear
4:53 AM 72.0 °F 55.0 °F 55% 29.87 in 10.0 mi SE 11.5 mph 21.9 mph N/A   Partly Cloudy
5:53 AM 71.1 °F 54.0 °F 55% 29.87 in 10.0 mi SSE 8.1 mph - N/A   Mostly Cloudy
6:53 AM 70.0 °F 54.0 °F 57% 29.88 in 10.0 mi South 8.1 mph - N/A   Overcast
7:53 AM 66.9 °F 55.0 °F 66% 29.88 in 8.0 mi SSE 6.9 mph - 0.01 in Rain Light Rain
8:53 AM 64.9 °F 60.1 °F 84% 29.88 in 10.0 mi Calm Calm - 0.03 in   Mostly Cloudy
9:45 AM 64.0 °F 61.0 °F 90% 29.95 in 1.5 mi West 8.1 mph - 0.08 in Rain Light Rain
9:53 AM 64.0 °F 61.0 °F 90% 29.90 in 1.0 mi East 3.5 mph - 0.11 in Rain Heavy Rain
9:58 AM 64.0 °F 61.0 °F 90% 29.94 in 3.0 mi SE 4.6 mph - 0.00 in Rain Light Rain
10:53 AM 64.9 °F 61.0 °F 87% 29.90 in 5.0 mi South 9.2 mph - 0.05 in Rain Light Rain
11:53 AM 66.0 °F 62.1 °F 87% 29.89 in 5.0 mi SSE 6.9 mph - 0.07 in Rain Light Rain
12:53 PM 66.9 °F 62.1 °F 84% 29.87 in 9.0 mi SE 8.1 mph - 0.05 in Rain Light Rain
1:53 PM 66.9 °F 63.0 °F 87% 29.86 in 10.0 mi SSE 6.9 mph - 0.04 in Rain Light Rain
3:53 PM 64.0 °F 60.1 °F 87% 29.86 in 2.0 mi WNW 16.1 mph 23.0 mph 0.07 in Rain Heavy Rain
3:55 PM 63.0 °F 60.1 °F 90% 29.89 in 1.2 mi WNW 13.8 mph 23.0 mph 0.04 in Rain Heavy Rain
3:58 PM 62.1 °F 59.0 °F 90% 29.89 in 1.0 mi WNW 13.8 mph 23.0 mph 0.06 in Rain Heavy Rain
4:03 PM 61.0 °F 59.0 °F 93% 29.90 in 4.0 mi WNW 11.5 mph - 0.07 in Rain Rain
4:53 PM 60.1 °F 57.0 °F 90% 29.89 in 4.0 mi WNW 9.2 mph - 0.08 in Rain Light Rain
5:00 PM 60.1 °F 55.9 °F 86% 29.93 in 9.0 mi WNW 10.4 mph - 0.00 in Rain Light Rain
5:28 PM 59.0 °F 55.9 °F 90% 29.93 in 10.0 mi West 8.1 mph - 0.01 in Rain Light Rain
5:35 PM 59.0 °F 55.0 °F 87% 29.93 in 10.0 mi West 8.1 mph - 0.01 in   Overcast
5:53 PM 57.9 °F 55.0 °F 90% 29.90 in 2.0 mi West 6.9 mph - 0.04 in Rain Rain
5:57 PM 57.9 °F 55.0 °F 90% 29.93 in 1.8 mi West 6.9 mph - 0.01 in Rain Rain
6:04 PM 57.9 °F 55.0 °F 90% 29.94 in 1.5 mi West 4.6 mph - 0.04 in Rain Heavy Rain
6:23 PM 57.0 °F 55.0 °F 93% 29.95 in 1.0 mi Calm Calm - 0.15 in Rain Heavy Rain
6:44 PM 55.9 °F 54.0 °F 93% 29.96 in 1.5 mi WSW 5.8 mph 19.6 mph 0.25 in Rain Heavy Rain
6:53 PM 55.9 °F 54.0 °F 93% 29.93 in 1.0 mi West 5.8 mph - 0.32 in Rain Heavy Rain
6:58 PM 55.9 °F 54.0 °F 93% 29.97 in 0.8 mi WSW 5.8 mph - 0.04 in Rain Heavy Rain
7:53 PM 55.0 °F 52.0 °F 89% 29.97 in 5.0 mi WSW 8.1 mph - 0.23 in Rain Rain
7:55 PM 55.0 °F 52.0 °F 89% 30.00 in 5.0 mi WSW 6.9 mph - 0.00 in Rain Rain
8:04 PM 55.0 °F 52.0 °F 89% 30.00 in 5.0 mi WSW 10.4 mph - 0.02 in Rain Heavy Rain
8:53 PM 53.1 °F 50.0 °F 89% 29.98 in 5.0 mi West 9.2 mph - 0.08 in Rain Light Rain
9:00 PM 53.1 °F 50.0 °F 89% 30.01 in 8.0 mi West 8.1 mph - 0.01 in Rain Light Rain
9:32 PM 52.0 °F 50.0 °F 93% 30.01 in 9.0 mi West 8.1 mph - 0.01 in   Overcast
9:53 PM 52.0 °F 48.0 °F 86% 30.00 in 10.0 mi West 8.1 mph - 0.01 in   Overcast
10:07 PM 51.1 °F 48.0 °F 89% 30.03 in 10.0 mi WSW 5.8 mph - 0.00 in Rain Light Rain
10:32 PM 51.1 °F 48.9 °F 92% 30.02 in 2.5 mi West 4.6 mph - 0.06 in Rain Heavy Rain
10:50 PM 51.8 °F 48.2 °F 88% 30.03 in 2.5 mi SW 3.5 mph - 0.13 in Rain Rain
10:53 PM 51.1 °F 48.9 °F 92% 30.01 in 2.5 mi SSW 3.5 mph - 0.13 in Rain Rain
10:57 PM 51.1 °F 48.9 °F 92% 30.02 in 3.0 mi SW 4.6 mph - 0.02 in Rain Rain
11:11 PM 51.1 °F 48.9 °F 92% 30.01 in 2.5 mi West 3.5 mph - 0.06 in Rain Rain
11:23 PM 51.1 °F 48.9 °F 92% 30.01 in 3.0 mi WSW 3.5 mph - 0.08 in Rain Light Rain
11:46 PM 51.1 °F 48.9 °F 92% 30.01 in 5.0 mi SSW 4.6 mph - 0.09 in Rain Light Rain
11:53 PM 51.1 °F 48.9 °F 92% 30.00 in 5.0 mi SSW 5.8 mph - 0.10 in Rain Light Rain